THY75 LTFM-CYVR

Flight info

Callsign THY75
Flight time N/A
Altitude 32000
Route TUDBU Q26 UPAMA DCT BUDOP DCT BILNA DCT REGLI T720 MOLIL DCT PENOR/N0485F340 DCT GIKAV DCT GISOX DCT 70N000E/M084F340 74N020W 76N040W/M084F360 76N060W DCT GELBO/N0479F360 DCT 7330N08000W 71N090W 67N100W 60N110W/N0484F380 DCT YZU DCT 51N120W DCT MERYT/N0398F160 T713 BOOTH LIONN4
Aircraft B77W/H-SDE1E2E3FGHIJ2J3J4J5M1RWXY/LB1D1

Departure

Time N/A
Airport İstanbul Airport (LTFM)

Arrival

Time 2026-05-07 15:38
Airport Vancouver International Airport (CYVR)
Time Latitude Longitude Altitude Speed Heading
2026-05-07 15:16 49.74292 -121.47794 28408 ft 445 kts 245°
2026-05-07 15:16 49.72818 -121.51613 28258 ft 443 kts 245°
2026-05-07 15:16 49.71239 -121.55704 27999 ft 443 kts 245°
2026-05-07 15:16 49.69657 -121.59791 27793 ft 443 kts 245°
2026-05-07 15:17 49.68077 -121.63864 27640 ft 441 kts 245°
2026-05-07 15:17 49.66504 -121.67915 27474 ft 440 kts 245°
2026-05-07 15:17 49.64929 -121.71960 27278 ft 439 kts 245°
2026-05-07 15:17 49.63361 -121.75985 26803 ft 439 kts 244°
2026-05-07 15:18 49.61789 -121.80009 26169 ft 437 kts 244°
2026-05-07 15:18 49.60249 -121.83946 25560 ft 433 kts 244°
2026-05-07 15:18 49.58681 -121.87946 24960 ft 429 kts 244°
2026-05-07 15:18 49.57162 -121.91819 24352 ft 426 kts 244°
2026-05-07 15:19 49.55632 -121.95713 23766 ft 424 kts 244°
2026-05-07 15:19 49.54109 -121.99585 23085 ft 421 kts 244°
2026-05-07 15:19 49.52660 -122.03267 22485 ft 418 kts 244°
2026-05-07 15:19 49.51156 -122.07076 21896 ft 415 kts 243°
2026-05-07 15:20 49.49664 -122.10855 21307 ft 412 kts 243°
2026-05-07 15:20 49.48183 -122.14607 20746 ft 409 kts 243°
2026-05-07 15:20 49.46704 -122.18339 20167 ft 407 kts 242°
2026-05-07 15:20 49.45232 -122.22049 19613 ft 406 kts 242°
2026-05-07 15:21 49.43763 -122.25746 19041 ft 404 kts 242°
2026-05-07 15:21 49.42302 -122.29419 18470 ft 403 kts 242°
2026-05-07 15:21 49.40844 -122.33085 17828 ft 401 kts 242°
2026-05-07 15:21 49.39379 -122.36706 17262 ft 398 kts 240°
2026-05-07 15:22 49.37867 -122.40267 16670 ft 396 kts 239°
2026-05-07 15:22 49.36361 -122.43746 15993 ft 397 kts 238°
2026-05-07 15:22 49.34835 -122.47260 15417 ft 395 kts 238°
2026-05-07 15:22 49.33317 -122.50762 14857 ft 392 kts 238°
2026-05-07 15:23 49.31815 -122.54236 14303 ft 390 kts 238°
2026-05-07 15:23 49.30319 -122.57699 13712 ft 388 kts 238°
2026-05-07 15:23 49.28835 -122.61136 13123 ft 385 kts 237°
2026-05-07 15:23 49.27362 -122.64542 12562 ft 382 kts 237°
2026-05-07 15:24 49.25901 -122.67921 12010 ft 376 kts 238°
2026-05-07 15:24 49.24821 -122.71472 11469 ft 366 kts 257°
2026-05-07 15:24 49.24593 -122.75312 10962 ft 362 kts 275°
2026-05-07 15:24 49.25006 -122.79003 10796 ft 344 kts 282°
2026-05-07 15:25 49.25462 -122.82537 10636 ft 333 kts 281°
2026-05-07 15:25 49.25883 -122.85960 10494 ft 322 kts 281°
2026-05-07 15:25 49.26277 -122.89280 10360 ft 312 kts 280°
2026-05-07 15:25 49.26655 -122.92503 10229 ft 302 kts 280°
2026-05-07 15:26 49.27015 -122.95611 10114 ft 292 kts 280°
2026-05-07 15:26 49.27363 -122.98620 10039 ft 281 kts 280°
2026-05-07 15:26 49.27681 -123.01369 10005 ft 280 kts 280°
2026-05-07 15:26 49.28037 -123.04435 9381 ft 297 kts 280°
2026-05-07 15:27 49.28403 -123.07538 8863 ft 303 kts 280°
2026-05-07 15:27 49.28770 -123.10643 8493 ft 291 kts 280°
2026-05-07 15:27 49.29125 -123.13643 8119 ft 280 kts 281°
2026-05-07 15:27 49.29465 -123.16525 7875 ft 274 kts 281°
2026-05-07 15:28 49.29802 -123.19391 7558 ft 272 kts 281°
2026-05-07 15:28 49.30137 -123.22252 7235 ft 272 kts 281°
2026-05-07 15:28 49.30471 -123.25099 6918 ft 271 kts 281°
2026-05-07 15:28 49.30793 -123.27950 6597 ft 271 kts 280°
2026-05-07 15:29 49.31102 -123.30802 6246 ft 271 kts 280°
2026-05-07 15:29 49.31407 -123.33651 5917 ft 271 kts 280°
2026-05-07 15:29 49.31712 -123.36486 5593 ft 270 kts 280°
2026-05-07 15:29 49.32018 -123.39327 5266 ft 269 kts 280°
2026-05-07 15:30 49.32322 -123.42155 4934 ft 268 kts 280°
2026-05-07 15:30 49.32625 -123.44964 4603 ft 266 kts 280°
2026-05-07 15:30 49.32924 -123.47749 4330 ft 262 kts 280°
2026-05-07 15:30 49.33210 -123.50415 4384 ft 245 kts 280°
2026-05-07 15:31 49.33475 -123.52950 4305 ft 239 kts 277°
2026-05-07 15:31 49.33318 -123.55417 4092 ft 237 kts 248°
2026-05-07 15:31 49.32347 -123.57405 3920 ft 234 kts 216°
2026-05-07 15:31 49.30864 -123.58294 3737 ft 230 kts 184°
2026-05-07 15:32 49.29311 -123.57899 3582 ft 226 kts 160°
2026-05-07 15:32 49.27853 -123.56988 3432 ft 226 kts 156°
2026-05-07 15:32 49.26417 -123.56022 3306 ft 226 kts 156°
2026-05-07 15:32 49.25079 -123.54828 3142 ft 223 kts 135°
2026-05-07 15:33 49.24332 -123.52764 3073 ft 225 kts 107°
2026-05-07 15:33 49.23968 -123.50423 2999 ft 227 kts 101°
2026-05-07 15:33 49.23684 -123.48055 2995 ft 225 kts 100°
2026-05-07 15:33 49.23419 -123.45690 2993 ft 225 kts 100°
2026-05-07 15:34 49.23153 -123.43327 2992 ft 225 kts 100°
2026-05-07 15:34 49.22888 -123.40986 2801 ft 224 kts 100°
2026-05-07 15:34 49.22626 -123.38675 2529 ft 215 kts 100°
2026-05-07 15:34 49.22461 -123.37218 2319 ft 205 kts 99°
2026-05-07 15:35 49.22151 -123.34483 1935 ft 184 kts 99°
2026-05-07 15:35 49.22009 -123.33239 1769 ft 175 kts 100°
2026-05-07 15:35 49.21806 -123.31446 1531 ft 168 kts 100°
2026-05-07 15:35 49.21610 -123.29718 1326 ft 162 kts 100°
2026-05-07 15:36 49.21364 -123.27550 1035 ft 147 kts 101°
2026-05-07 15:36 49.21250 -123.26547 920 ft 144 kts 101°
2026-05-07 15:36 49.21079 -123.25035 693 ft 144 kts 101°
2026-05-07 15:36 49.20910 -123.23537 513 ft 141 kts 100°
2026-05-07 15:37 49.20742 -123.22067 320 ft 141 kts 101°
2026-05-07 15:37 49.20580 -123.20613 144 ft 140 kts 101°
2026-05-07 15:37 49.20408 -123.19144 31 ft 133 kts 99°
2026-05-07 15:37 49.20274 -123.17942 30 ft 95 kts 100°
2026-05-07 15:38 49.20190 -123.17212 30 ft 44 kts 100°
2026-05-07 15:38 49.20133 -123.16961 30 ft 20 kts 120°
2026-05-07 15:38 49.20051 -123.16794 30 ft 20 kts 130°
2026-05-07 15:38 49.19971 -123.16646 30 ft 14 kts 129°
2026-05-07 15:39 49.19930 -123.16610 30 ft 3 kts 204°
2026-05-07 15:39 49.19919 -123.16647 30 ft 6 kts 257°
2026-05-07 15:39 49.19924 -123.16774 30 ft 16 kts 280°
2026-05-07 15:39 49.19944 -123.16945 30 ft 17 kts 280°
2026-05-07 15:40 49.19963 -123.17111 30 ft 16 kts 280°
2026-05-07 15:40 49.19982 -123.17273 30 ft 16 kts 280°
2026-05-07 15:40 49.20000 -123.17434 30 ft 16 kts 280°
2026-05-07 15:40 49.20019 -123.17596 30 ft 16 kts 280°
2026-05-07 15:41 49.20037 -123.17757 30 ft 16 kts 279°
2026-05-07 15:41 49.20056 -123.17919 30 ft 16 kts 279°